Time,TemperatureF,DewpointF,PressureIn,WindDirection,WindDirectionDegrees,WindSpeedMPH,WindSpeedGustMPH,Humidity,HourlyPrecipIn,Conditions,Clouds,dailyrainin,SoftwareType,DateUTC
2013-02-11 00:12:00,41.2,40.0,29.23,NE,53,0.0,0.0,95,0.00,,,0.00,weatherlink.com 1.10,2013-02-11 00:12:00,
2013-02-11 00:27:00,41.2,40.0,29.23,NNE,32,0.0,1.0,95,0.00,,,0.00,weatherlink.com 1.10,2013-02-11 00:27:00,
2013-02-11 00:42:00,41.3,40.0,29.24,NE,36,0.0,2.0,95,0.01,,,0.01,weatherlink.com 1.10,2013-02-11 00:42:00,
2013-02-11 00:57:00,41.2,40.0,29.25,NE,55,0.0,7.0,94,0.02,,,0.02,weatherlink.com 1.10,2013-02-11 00:57:00,
2013-02-11 01:13:00,40.7,39.0,29.25,NE,38,0.0,6.0,94,0.02,,,0.02,weatherlink.com 1.10,2013-02-11 01:13:00,
2013-02-11 01:28:00,40.4,39.0,29.26,East,84,4.0,6.0,94,0.02,,,0.02,weatherlink.com 1.10,2013-02-11 01:28:00,
2013-02-11 01:43:00,39.9,38.0,29.26,ESE,118,1.0,12.0,93,0.02,,,0.02,weatherlink.com 1.10,2013-02-11 01:43:00,
2013-02-11 01:58:00,39.6,38.0,29.27,ENE,62,0.0,9.0,93,0.01,,,0.02,weatherlink.com 1.10,2013-02-11 01:58:00,
2013-02-11 02:13:00,39.5,38.0,29.27,ENE,65,0.0,7.0,93,0.00,,,0.02,weatherlink.com 1.10,2013-02-11 02:13:00,
2013-02-11 02:28:00,39.5,37.0,29.27,NNW,347,1.0,8.0,92,0.00,,,0.02,weatherlink.com 1.10,2013-02-11 02:28:00,
2013-02-11 02:43:00,39.5,37.0,29.28,NNE,14,2.0,11.0,92,0.00,,,0.02,weatherlink.com 1.10,2013-02-11 02:43:00,
2013-02-11 02:58:00,39.5,37.0,29.29,North,351,1.0,10.0,92,0.00,,,0.02,weatherlink.com 1.10,2013-02-11 02:58:00,
2013-02-11 03:13:00,39.5,37.0,29.29,ESE,123,1.0,7.0,91,0.00,,,0.02,weatherlink.com 1.10,2013-02-11 03:13:00,
2013-02-11 03:28:00,39.3,37.0,29.30,NE,54,3.0,7.0,91,0.00,,,0.02,weatherlink.com 1.10,2013-02-11 03:28:00,
2013-02-11 03:43:00,39.2,37.0,29.30,East,81,6.0,7.0,90,0.00,,,0.02,weatherlink.com 1.10,2013-02-11 03:43:00,
2013-02-11 03:58:00,39.2,37.0,29.31,ENE,68,3.0,8.0,90,0.00,,,0.02,weatherlink.com 1.10,2013-02-11 03:58:00,
2013-02-11 04:13:00,39.3,37.0,29.32,NW,325,1.0,7.0,91,0.00,,,0.02,weatherlink.com 1.10,2013-02-11 04:13:00,
2013-02-11 04:28:00,39.2,37.0,29.32,NNE,18,3.0,7.0,90,0.00,,,0.02,weatherlink.com 1.10,2013-02-11 04:28:00,
2013-02-11 04:43:00,39.2,37.0,29.33,NE,55,4.0,8.0,90,0.00,,,0.02,weatherlink.com 1.10,2013-02-11 04:43:00,
2013-02-11 04:58:00,39.2,37.0,29.34,North,8,1.0,7.0,90,0.00,,,0.02,weatherlink.com 1.10,2013-02-11 04:58:00,
2013-02-11 05:13:00,39.1,37.0,29.34,NNE,15,5.0,6.0,90,0.00,,,0.02,weatherlink.com 1.10,2013-02-11 05:13:00,
2013-02-11 05:28:00,39.2,37.0,29.35,WNW,300,1.0,5.0,90,0.00,,,0.02,weatherlink.com 1.10,2013-02-11 05:28:00,
2013-02-11 05:43:00,39.1,37.0,29.36,NE,49,0.0,3.0,90,0.00,,,0.02,weatherlink.com 1.10,2013-02-11 05:43:00,
2013-02-11 05:58:00,39.3,37.0,29.36,NE,37,3.0,5.0,91,0.00,,,0.02,weatherlink.com 1.10,2013-02-11 05:58:00,
2013-02-11 06:13:00,39.7,37.0,29.37,ENE,72,3.0,5.0,91,0.00,,,0.02,weatherlink.com 1.10,2013-02-11 06:13:00,
2013-02-11 06:28:00,39.7,37.0,29.38,ENE,65,3.0,7.0,91,0.00,,,0.02,weatherlink.com 1.10,2013-02-11 06:28:00,
2013-02-11 06:43:00,39.3,37.0,29.39,ENE,59,1.0,7.0,92,0.00,,,0.02,weatherlink.com 1.10,2013-02-11 06:43:00,
2013-02-11 06:58:00,39.1,37.0,29.39,NNE,19,2.0,5.0,93,0.01,,,0.03,weatherlink.com 1.10,2013-02-11 06:58:00,
2013-02-11 07:29:00,38.9,37.0,29.42,NE,53,1.0,6.0,93,0.01,,,0.03,weatherlink.com 1.10,2013-02-11 07:29:00,
2013-02-11 07:44:00,38.8,37.0,29.42,NE,53,0.0,6.0,94,0.02,,,0.04,weatherlink.com 1.10,2013-02-11 07:44:00,
2013-02-11 07:59:00,38.7,37.0,29.43,NE,37,2.0,3.0,94,0.01,,,0.04,weatherlink.com 1.10,2013-02-11 07:59:00,
2013-02-11 08:14:00,38.7,37.0,29.44,NNE,12,0.0,4.0,94,0.01,,,0.04,weatherlink.com 1.10,2013-02-11 08:14:00,
2013-02-11 08:29:00,38.8,37.0,29.45,East,86,0.0,3.0,94,0.02,,,0.05,weatherlink.com 1.10,2013-02-11 08:29:00,
2013-02-11 08:44:00,39.0,38.0,29.46,ENE,57,0.0,5.0,94,0.02,,,0.06,weatherlink.com 1.10,2013-02-11 08:44:00,
2013-02-11 08:59:00,38.9,37.0,29.46,East,86,1.0,4.0,94,0.02,,,0.06,weatherlink.com 1.10,2013-02-11 08:59:00,
2013-02-11 09:14:00,38.8,37.0,29.47,East,79,2.0,4.0,94,0.02,,,0.06,weatherlink.com 1.10,2013-02-11 09:14:00,
2013-02-11 09:29:00,38.8,37.0,29.48,ENE,75,0.0,4.0,94,0.01,,,0.06,weatherlink.com 1.10,2013-02-11 09:29:00,
2013-02-11 09:44:00,38.7,37.0,29.49,NNW,347,1.0,4.0,94,0.00,,,0.06,weatherlink.com 1.10,2013-02-11 09:44:00,
2013-02-11 09:59:00,38.8,37.0,29.49,NNE,14,0.0,2.0,94,0.00,,,0.06,weatherlink.com 1.10,2013-02-11 09:59:00,
2013-02-11 10:14:00,38.9,37.0,29.50,NE,55,3.0,5.0,94,0.01,,,0.06,weatherlink.com 1.10,2013-02-11 10:14:00,
2013-02-11 10:29:00,39.0,38.0,29.51,North,11,0.0,3.0,94,0.01,,,0.06,weatherlink.com 1.10,2013-02-11 10:29:00,
2013-02-11 10:44:00,39.1,37.0,29.51,ENE,57,1.0,3.0,93,0.01,,,0.06,weatherlink.com 1.10,2013-02-11 10:44:00,
2013-02-11 10:59:00,39.2,37.0,29.52,NNE,33,3.0,3.0,93,0.01,,,0.06,weatherlink.com 1.10,2013-02-11 10:59:00,
2013-02-11 11:14:00,39.3,38.0,29.52,North,8,1.0,3.0,93,0.00,,,0.06,weatherlink.com 1.10,2013-02-11 11:14:00,
2013-02-11 11:29:00,39.4,38.0,29.53,ENE,71,0.0,5.0,93,0.00,,,0.06,weatherlink.com 1.10,2013-02-11 11:29:00,
2013-02-11 11:44:00,39.4,37.0,29.54,East,92,1.0,7.0,92,0.00,,,0.06,weatherlink.com 1.10,2013-02-11 11:44:00,
2013-02-11 11:59:00,39.5,37.0,29.54,NW,316,1.0,3.0,92,0.00,,,0.06,weatherlink.com 1.10,2013-02-11 11:59:00,
2013-02-11 12:14:00,39.5,37.0,29.55,East,84,0.0,4.0,91,0.00,,,0.06,weatherlink.com 1.10,2013-02-11 12:14:00,
2013-02-11 12:30:00,39.6,37.0,29.56,ENE,58,3.0,4.0,91,0.00,,,0.06,weatherlink.com 1.10,2013-02-11 12:30:00,
2013-02-11 12:45:00,39.5,37.0,29.56,East,87,1.0,4.0,91,0.00,,,0.06,weatherlink.com 1.10,2013-02-11 12:45:00,
2013-02-11 13:00:00,39.5,37.0,29.57,ESE,109,1.0,5.0,91,0.00,,,0.06,weatherlink.com 1.10,2013-02-11 13:00:00,
2013-02-11 13:15:00,39.6,37.0,29.58,ESE,108,2.0,3.0,91,0.00,,,0.06,weatherlink.com 1.10,2013-02-11 13:15:00,
2013-02-11 13:30:00,39.5,37.0,29.58,ENE,70,1.0,7.0,90,0.00,,,0.06,weatherlink.com 1.10,2013-02-11 13:30:00,
2013-02-11 13:45:00,39.4,37.0,29.59,ENE,74,1.0,3.0,90,0.00,,,0.06,weatherlink.com 1.10,2013-02-11 13:45:00,
2013-02-11 14:00:00,39.3,37.0,29.60,North,9,0.0,3.0,90,0.00,,,0.06,weatherlink.com 1.10,2013-02-11 14:00:00,
2013-02-11 14:15:00,39.3,37.0,29.60,ESE,117,1.0,5.0,90,0.00,,,0.06,weatherlink.com 1.10,2013-02-11 14:15:00,
2013-02-11 14:30:00,39.3,36.0,29.61,East,86,0.0,5.0,89,0.00,,,0.06,weatherlink.com 1.10,2013-02-11 14:30:00,
2013-02-11 14:45:00,39.1,36.0,29.61,NNW,335,1.0,3.0,89,0.00,,,0.06,weatherlink.com 1.10,2013-02-11 14:45:00,
2013-02-11 15:00:00,39.1,36.0,29.61,North,356,2.0,4.0,89,0.00,,,0.06,weatherlink.com 1.10,2013-02-11 15:00:00,
2013-02-11 15:15:00,39.1,36.0,29.62,ENE,72,0.0,2.0,88,0.00,,,0.06,weatherlink.com 1.10,2013-02-11 15:15:00,
2013-02-11 15:30:00,39.1,36.0,29.62,NE,55,0.0,3.0,89,0.00,,,0.06,weatherlink.com 1.10,2013-02-11 15:30:00,
2013-02-11 15:45:00,39.2,36.0,29.63,North,351,0.0,2.0,89,0.00,,,0.06,weatherlink.com 1.10,2013-02-11 15:45:00,
2013-02-11 16:00:00,39.3,36.0,29.63,NE,46,0.0,4.0,89,0.00,,,0.06,weatherlink.com 1.10,2013-02-11 16:00:00,
2013-02-11 16:15:00,39.6,37.0,29.63,East,95,0.0,2.0,89,0.00,,,0.06,weatherlink.com 1.10,2013-02-11 16:15:00,
2013-02-11 16:30:00,39.5,36.0,29.64,SE,136,1.0,3.0,88,0.00,,,0.06,weatherlink.com 1.10,2013-02-11 16:30:00,
2013-02-11 16:45:00,39.7,37.0,29.64,ESE,105,1.0,4.0,88,0.00,,,0.06,weatherlink.com 1.10,2013-02-11 16:45:00,
2013-02-11 17:00:00,39.6,37.0,29.65,SE,127,2.0,4.0,89,0.00,,,0.06,weatherlink.com 1.10,2013-02-11 17:00:00,
2013-02-11 17:15:00,39.7,37.0,29.66,ESE,123,0.0,5.0,89,0.00,,,0.06,weatherlink.com 1.10,2013-02-11 17:15:00,
2013-02-11 17:30:00,39.6,37.0,29.66,East,86,1.0,4.0,90,0.00,,,0.06,weatherlink.com 1.10,2013-02-11 17:30:00,
2013-02-11 17:45:00,39.6,37.0,29.66,SSE,166,2.0,5.0,90,0.00,,,0.06,weatherlink.com 1.10,2013-02-11 17:45:00,
2013-02-11 18:00:00,39.7,37.0,29.68,SE,146,0.0,1.0,91,0.00,,,0.06,weatherlink.com 1.10,2013-02-11 18:00:00,
2013-02-11 18:15:00,39.6,38.0,29.68,East,91,0.0,1.0,92,0.00,,,0.06,weatherlink.com 1.10,2013-02-11 18:15:00,
2013-02-11 18:30:00,39.5,37.0,29.69,SE,136,1.0,4.0,92,0.00,,,0.06,weatherlink.com 1.10,2013-02-11 18:30:00,
2013-02-11 18:45:00,39.5,38.0,29.69,ESE,110,0.0,4.0,93,0.00,,,0.06,weatherlink.com 1.10,2013-02-11 18:45:00,
2013-02-11 19:00:00,39.2,37.0,29.70,ESE,117,0.0,3.0,93,0.00,,,0.06,weatherlink.com 1.10,2013-02-11 19:00:00,
2013-02-11 19:15:00,39.3,38.0,29.70,East,93,2.0,3.0,93,0.00,,,0.06,weatherlink.com 1.10,2013-02-11 19:15:00,
2013-02-11 19:30:00,39.2,37.0,29.71,ESE,116,0.0,3.0,93,0.00,,,0.06,weatherlink.com 1.10,2013-02-11 19:30:00,
2013-02-11 19:45:00,39.1,37.0,29.71,SE,145,1.0,3.0,93,0.01,,,0.07,weatherlink.com 1.10,2013-02-11 19:45:00,
2013-02-11 20:00:00,39.1,38.0,29.72,ENE,65,1.0,2.0,94,0.01,,,0.07,weatherlink.com 1.10,2013-02-11 20:00:00,
2013-02-11 20:15:00,39.2,38.0,29.73,SE,139,1.0,3.0,94,0.02,,,0.08,weatherlink.com 1.10,2013-02-11 20:15:00,
2013-02-11 20:30:00,39.1,38.0,29.73,SE,141,0.0,3.0,94,0.02,,,0.09,weatherlink.com 1.10,2013-02-11 20:30:00,
2013-02-11 20:45:00,39.1,38.0,29.74,ESE,122,1.0,3.0,94,0.02,,,0.09,weatherlink.com 1.10,2013-02-11 20:45:00,
2013-02-11 21:01:00,39.1,38.0,29.75,SE,136,2.0,5.0,94,0.04,,,0.11,weatherlink.com 1.10,2013-02-11 21:01:00,
2013-02-11 21:16:00,39.2,38.0,29.75,ESE,123,0.0,3.0,94,0.04,,,0.12,weatherlink.com 1.10,2013-02-11 21:16:00,
2013-02-11 21:31:00,39.2,38.0,29.75,SE,126,0.0,2.0,94,0.04,,,0.13,weatherlink.com 1.10,2013-02-11 21:31:00,
2013-02-11 21:46:00,39.3,38.0,29.76,SE,138,0.0,2.0,94,0.04,,,0.13,weatherlink.com 1.10,2013-02-11 21:46:00,
2013-02-11 22:01:00,39.3,38.0,29.77,SE,127,0.0,2.0,94,0.02,,,0.13,weatherlink.com 1.10,2013-02-11 22:01:00,
2013-02-11 22:16:00,39.2,38.0,29.77,SE,143,1.0,3.0,94,0.02,,,0.13,weatherlink.com 1.10,2013-02-11 22:16:00,
2013-02-11 22:31:00,39.2,38.0,29.78,East,98,1.0,3.0,94,0.02,,,0.14,weatherlink.com 1.10,2013-02-11 22:31:00,
2013-02-11 22:46:00,39.3,38.0,29.78,SE,132,1.0,2.0,93,0.01,,,0.14,weatherlink.com 1.10,2013-02-11 22:46:00,
2013-02-11 23:01:00,39.4,38.0,29.79,SE,126,2.0,2.0,93,0.01,,,0.14,weatherlink.com 1.10,2013-02-11 23:01:00,
2013-02-11 23:16:00,39.5,38.0,29.79,SE,136,0.0,3.0,93,0.01,,,0.14,weatherlink.com 1.10,2013-02-11 23:16:00,
2013-02-11 23:31:00,39.5,38.0,29.80,SE,136,0.0,1.0,93,0.00,,,0.14,weatherlink.com 1.10,2013-02-11 23:31:00,
2013-02-11 23:46:00,39.4,38.0,29.80,ESE,123,0.0,2.0,93,0.00,,,0.14,weatherlink.com 1.10,2013-02-11 23:46:00,